Total_Precipitation_Accumulation
0.18 0.08 0.09 0.09 0.12 0.12 0.13 0.16 0.18 0.19 0.18 0.17 0.17 0.16 0.17 0.16 0.15 0.13 0.12 0.15 0.19 0.24 0.28 0.32 0.32 0.31 0.33 0.33 0.30 0.25 0.23 0.26 0.32 0.33 0.38 0.44 0.50 0.52 0.55 0.57 0.66 0.62 0.54
0.14 0.09 0.09 0.08 0.09 0.11 0.11 0.15 0.17 0.17 0.19 0.20 0.21 0.21 0.21 0.18 0.14 0.13 0.13 0.17 0.24 0.27 0.27 0.29 0.29 0.27 0.29 0.27 0.23 0.22 0.22 0.28 0.38 0.46 0.52 0.54 0.62 0.63 0.62 0.60 0.73 0.84 0.67
0.14 0.09 0.07 0.08 0.08 0.09 0.11 0.14 0.16 0.15 0.17 0.19 0.21 0.21 0.19 0.16 0.15 0.15 0.14 0.19 0.24 0.26 0.25 0.21 0.21 0.21 0.22 0.22 0.21 0.21 0.24 0.32 0.46 0.66 1.01 0.92 0.76 0.71 0.70 0.66 0.60 0.56 0.52
0.17 0.11 0.07 0.08 0.09 0.10 0.09 0.12 0.18 0.17 0.16 0.17 0.19 0.18 0.18 0.18 0.19 0.20 0.20 0.23 0.26 0.26 0.24 0.20 0.19 0.19 0.21 0.21 0.20 0.21 0.26 0.36 0.59 0.90 1.52 1.35 1.06 1.03 0.95 0.81 0.61 0.51 0.46
0.17 0.13 0.12 0.11 0.12 0.14 0.12 0.11 0.17 0.19 0.20 0.20 0.22 0.21 0.23 0.24 0.24 0.24 0.26 0.29 0.29 0.31 0.33 0.33 0.30 0.27 0.26 0.25 0.24 0.26 0.35 0.50 0.76 1.18 1.80 1.73 1.59 1.41 1.07 0.84 0.71 0.63 0.55
0.22 0.15 0.15 0.15 0.16 0.18 0.17 0.17 0.19 0.20 0.24 0.27 0.27 0.26 0.27 0.28 0.28 0.28 0.31 0.34 0.35 0.37 0.40 0.43 0.41 0.33 0.29 0.28 0.31 0.35 0.44 0.65 0.86 1.28 1.88 1.87 1.72 1.50 1.08 0.94 0.81 0.70 0.62
0.37 0.30 0.23 0.21 0.19 0.19 0.21 0.26 0.29 0.26 0.26 0.30 0.31 0.29 0.30 0.31 0.31 0.32 0.34 0.37 0.42 0.43 0.43 0.41 0.38 0.33 0.32 0.32 0.34 0.40 0.54 0.81 1.03 1.60 1.94 1.87 1.95 1.57 1.22 1.14 1.03 0.86 0.67
0.50 0.43 0.38 0.29 0.21 0.22 0.28 0.30 0.36 0.41 0.39 0.38 0.37 0.37 0.37 0.35 0.35 0.38 0.40 0.43 0.49 0.55 0.55 0.44 0.37 0.36 0.36 0.36 0.36 0.44 0.60 0.76 0.90 1.52 1.92 1.81 1.68 1.47 1.36 1.29 1.14 0.95 0.78
0.62 0.62 0.56 0.41 0.35 0.37 0.41 0.41 0.45 0.49 0.48 0.47 0.48 0.49 0.47 0.46 0.45 0.44 0.46 0.50 0.55 0.59 0.57 0.53 0.50 0.46 0.45 0.44 0.44 0.48 0.58 0.83 1.01 1.27 1.43 1.76 1.69 1.71 1.56 1.31 1.10 0.93 0.81
0.87 0.86 0.82 0.80 0.73 0.63 0.61 0.67 0.64 0.66 0.60 0.51 0.48 0.52 0.53 0.49 0.47 0.49 0.47 0.54 0.60 0.62 0.59 0.62 0.69 0.67 0.62 0.53 0.51 0.54 0.62 0.71 0.72 1.09 1.66 1.67 1.64 1.84 1.85 1.52 1.23 1.03 0.91
1.17 1.13 1.00 1.05 1.04 0.90 0.84 0.80 0.85 0.85 0.78 0.68 0.59 0.60 0.58 0.66 0.74 0.72 0.66 0.75 0.78 0.81 0.84 0.87 0.85 0.79 0.79 0.71 0.68 0.71 0.71 0.65 0.85 1.34 1.82 1.59 1.64 1.91 2.01 1.80 1.47 1.25 1.11
1.37 1.33 1.23 1.12 1.06 1.01 0.92 0.98 1.07 1.06 1.04 0.87 0.91 0.89 0.91 1.21 1.36 1.17 1.24 1.25 1.20 1.19 1.16 1.11 1.03 0.97 0.88 0.72 0.79 0.83 0.68 0.76 1.09 1.56 1.55 1.48 1.66 1.95 2.20 2.01 1.69 1.45 1.36
1.69 1.50 1.56 1.46 1.34 1.47 1.53 1.40 1.39 1.43 1.47 1.31 1.40 1.42 1.47 1.63 1.64 1.60 1.71 1.57 1.52 1.46 1.42 1.50 1.28 1.05 0.99 0.96 0.92 0.90 0.84 0.87 1.07 1.31 1.42 1.49 1.75 2.10 2.34 2.18 1.94 1.78 1.71
2.18 1.98 1.90 1.92 1.84 1.90 2.14 1.94 1.74 1.63 1.67 1.69 1.78 1.73 2.00 2.08 2.04 2.01 2.08 1.97 1.94 1.92 1.96 1.84 1.70 1.49 1.36 1.22 1.10 1.10 1.09 1.05 1.14 1.37 1.53 1.55 1.69 2.10 2.43 2.39 2.20 1.99 1.93
2.46 2.36 2.10 2.14 2.22 2.37 2.56 2.37 2.15 2.20 2.00 1.93 2.12 2.12 2.28 2.35 2.32 2.39 2.28 2.22 2.10 2.08 2.06 1.96 1.87 1.88 1.77 1.59 1.34 1.31 1.35 1.27 1.32 1.51 1.58 1.61 1.64 1.95 2.40 2.65 2.57 2.36 2.32
2.41 2.53 2.57 2.48 2.52 2.42 2.52 2.50 2.27 2.17 2.27 2.14 2.14 2.21 2.24 2.37 2.59 2.67 2.62 2.52 2.43 2.38 2.44 2.28 2.07 2.22 2.06 1.97 1.76 1.67 1.62 1.65 1.61 1.71 1.91 1.90 1.69 1.73 2.08 2.51 2.71 2.72 2.73
2.33 2.38 2.52 2.55 2.66 2.61 2.58 2.59 2.46 2.31 2.31 2.39 2.48 2.56 2.43 2.42 2.69 2.77 2.93 2.83 2.75 2.69 2.70 2.64 2.53 2.58 2.35 2.21 2.05 1.93 1.88 1.97 1.96 1.89 2.05 2.19 1.96 1.90 1.91 2.09 2.36 2.60 2.79
1.97 2.14 2.33 2.50 2.60 2.83 2.91 3.00 2.85 2.93 2.91 2.85 2.73 2.71 2.59 2.59 2.81 3.09 3.17 3.11 3.11 2.98 3.04 3.13 3.07 2.88 2.73 2.54 2.34 2.07 1.99 2.13 2.15 2.13 2.15 2.28 2.42 2.24 2.11 2.01 2.11 2.29 2.58
1.77 2.12 2.39 2.63 2.88 3.06 3.27 3.49 3.43 3.52 3.41 3.30 3.22 3.10 3.15 3.26 3.28 3.45 3.54 3.55 3.51 3.52 3.50 3.33 3.49 3.31 3.21 3.01 2.59 2.36 2.12 2.05 2.15 2.08 2.14 2.14 2.29 2.33 2.33 2.21 2.12 2.18 2.41
1.89 2.20 2.51 2.78 3.20 3.61 3.69 3.84 3.75 3.89 3.93 3.94 4.05 3.92 3.74 3.84 3.92 4.04 3.98 3.98 3.98 4.00 3.85 3.82 3.85 3.62 3.39 3.31 2.86 2.60 2.38 2.14 2.15 2.12 2.10 2.17 2.14 2.03 2.10 2.21 2.32 2.13 2.29
2.44 2.55 2.72 2.97 3.28 3.51 3.84 4.14 4.28 4.36 4.56 4.63 4.63 4.69 4.69 4.71 4.84 4.89 4.71 4.63 4.49 4.37 4.18 4.09 3.92 3.72 3.45 3.39 3.24 2.79 2.26 1.94 1.91 1.83 1.87 2.02 2.02 1.97 2.02 2.10 2.19 2.14 2.04
2.78 2.80 3.01 3.33 3.63 3.80 4.19 4.65 5.04 5.18 5.25 5.27 5.25 5.40 5.51 5.53 5.67 5.72 5.66 5.46 5.25 4.97 4.49 4.12 3.93 3.74 3.41 3.46 3.40 3.27 2.63 2.17 1.80 1.48 1.56 1.63 1.70 1.86 1.85 1.85 1.98 2.11 2.04
2.73 2.83 3.00 3.41 3.87 4.32 4.80 5.29 5.71 5.94 5.97 5.87 5.59 5.68 5.82 5.74 5.80 5.94 5.91 5.69 5.34 4.79 4.26 4.07 3.98 3.84 3.62 3.53 3.39 3.47 2.99 2.51 2.11 1.66 1.45 1.36 1.44 1.51 1.53 1.59 1.68 1.81 1.81
2.61 2.85 3.03 3.38 4.01 4.52 4.90 5.52 6.09 6.36 6.57 6.69 6.49 6.18 5.94 5.71 5.58 5.46 5.28 4.88 4.48 4.14 3.84 3.73 3.76 3.61 3.59 3.45 3.36 3.08 2.85 2.56 2.30 1.92 1.55 1.35 1.35 1.36 1.37 1.35 1.43 1.66 1.75
2.46 2.58 2.79 3.28 3.89 4.56 5.19 5.75 6.29 6.72 6.92 6.87 6.47 6.06 5.56 5.19 4.76 4.38 4.01 3.75 3.65 3.48 3.27 3.18 3.15 3.06 2.93 2.86 2.87 2.84 2.78 2.52 2.21 1.99 1.73 1.51 1.49 1.41 1.40 1.44 1.50 1.59 1.69
2.09 2.29 2.53 2.93 3.65 4.38 5.01 5.62 6.10 6.49 6.53 6.19 5.65 5.14 4.82 4.45 3.98 3.51 3.25 3.02 2.89 2.73 2.51 2.39 2.38 2.42 2.50 2.55 2.60 2.59 2.55 2.52 2.36 2.26 2.08 1.83 1.69 1.65 1.57 1.51 1.58 1.66 1.81